Date_and_time,latitude,longitude,wind_speed,RelWindDirFrom,WindDirFrom,air_pressure,air_temperature,relative_humidity,Temp,platform_speed_wrt_ground,air_pressure_at_mean_sea_level,platform_orientation
2018-06-25 23:40,50.9117266666667,-96.9825233333333,13.0,15.0,148,986.20,21.9,78,21.01,0.0,1011.91,0.0
2018-06-25 23:50,50.9117333333333,-96.98253,13.7,15.5,151,986.24,21.7,82,21.01,0.0,1011.97,0.0
2018-06-26 00:00,50.9117416666667,-96.9825066666667,13.7,15.4,150,986.25,21.6,85,21.02,0.0,1011.98,37.5
2018-06-26 00:10,50.9117366666667,-96.9825116666667,11.6,13.5,147,986.24,21.6,86,21.03,0.0,1011.97,37.5
2018-06-26 00:20,50.911725,-96.9825383333333,12.2,13.8,151,986.23,21.5,86,21.03,0.0,1011.95,37.5
2018-06-26 00:30,50.911735,-96.9825216666667,11.6,13.9,153,986.21,21.5,86,21.03,0.0,1011.93,37.5
2018-06-26 00:40,50.9117366666667,-96.9825216666667,13.0,15.0,152,986.12,21.6,83,21.03,0.0,1011.83,37.5
2018-06-26 00:50,50.911735,-96.9825233333333,12.6,14.9,153,986.10,21.6,83,21.02,0.0,1011.82,37.5
2018-06-26 01:00,50.911725,-96.9825233333333,12.4,14.7,154,986.05,21.5,84,21.02,0.0,1011.76,54.2
2018-06-26 01:10,50.911725,-96.9825233333333,10.8,14.1,158,986.03,21.5,84,21.01,0.0,1011.74,54.2
2018-06-26 01:20,50.9117283333333,-96.982525,8.6,10.7,158,986.09,21.4,88,21.01,0.0,1011.83,54.2
2018-06-26 01:30,50.9117283333333,-96.982525,8.9,10.4,152,986.14,21.3,88,21.01,0.0,1011.89,54.2
2018-06-26 01:40,50.9117116666667,-96.9825216666667,10.6,12.5,154,986.12,21.2,86,21.00,0.0,1011.89,54.2
2018-06-26 01:50,50.91174,-96.982525,10.7,12.3,154,986.09,21.1,88,20.99,0.0,1011.87,54.2
2018-06-26 02:00,50.9117333333333,-96.982525,11.0,12.6,157,986.01,21.2,87,20.98,0.0,1011.78,37.5
2018-06-26 02:10,50.9117266666667,-96.9825316666667,11.9,13.1,153,985.91,21.3,88,20.98,0.0,1011.68,37.5
2018-06-26 02:20,50.9117183333333,-96.9825233333333,11.5,12.8,156,985.93,21.2,90,20.97,0.0,1011.71,37.5
2018-06-26 02:30,50.9117233333333,-96.9825316666667,9.0,11.6,162,985.96,21.3,90,20.97,0.0,1011.73,37.5
2018-06-26 02:40,50.9117283333333,-96.9825366666667,9.4,12.7,163,986.00,21.5,88,20.97,0.0,1011.75,37.5
2018-06-26 02:50,50.91173,-96.9825366666667,9.6,13.6,166,986.01,21.6,89,20.96,0.0,1011.77,37.5
2018-06-26 03:00,50.91173,-96.9825383333333,9.9,13.4,165,986.05,21.4,90,20.96,0.0,1011.82,237.3
2018-06-26 03:10,50.9117316666667,-96.9825366666667,9.5,12.1,159,986.06,21.2,92,20.96,0.0,1011.84,237.3
2018-06-26 03:20,50.91175,-96.982545,9.6,10.5,154,986.03,20.8,96,20.96,0.0,1011.83,237.3
2018-06-26 03:30,50.911735,-96.982535,8.7,10.7,158,986.02,20.7,98,20.94,0.0,1011.82,237.3
2018-06-26 03:40,50.9117266666667,-96.9825333333333,7.5,9.3,162,986.06,20.6,99,20.93,0.0,1011.87,237.3
2018-06-26 03:50,50.9117283333333,-96.9825333333333,7.7,9.9,165,986.08,20.6,98,20.92,0.0,1011.90,237.3
2018-06-26 04:00,50.9117283333333,-96.9825316666667,8.7,11.3,163,986.10,20.8,96,20.91,0.0,1011.91,350.2
2018-06-26 04:10,50.9117283333333,-96.9825333333333,9.4,11.2,158,986.16,20.8,94,20.89,0.0,1011.97,350.2
2018-06-26 04:20,50.911735,-96.982525,9.5,11.4,152,986.20,20.7,96,20.89,0.0,1012.01,350.2
2018-06-26 04:30,50.9117233333333,-96.9825783333333,9.3,11.2,147,986.14,20.4,99,20.88,0.0,1011.95,350.2
2018-06-26 04:40,50.9116933333333,-96.9825283333333,10.2,11.5,150,986.02,20.4,99,20.87,0.0,1011.83,350.2
2018-06-26 04:50,50.91173,-96.98253,10.8,12.0,153,985.99,20.3,99,20.86,0.0,1011.80,350.2
2018-06-26 05:00,50.9117283333333,-96.98253,10.7,12.3,153,985.93,20.2,100,20.86,0.0,1011.76,90.0
2018-06-26 05:10,50.9117266666667,-96.98253,11.0,12.2,154,985.81,20.1,100,20.85,0.0,1011.66,90.0
2018-06-26 05:20,50.9117283333333,-96.9825333333333,10.8,12.3,157,985.62,20.0,100,20.84,0.0,1011.47,90.0
2018-06-26 05:30,50.9117266666667,-96.9825333333333,9.5,11.5,159,985.47,20.0,100,20.83,0.0,1011.32,90.0
2018-06-26 05:40,50.9117283333333,-96.982535,8.5,10.4,160,985.36,20.0,100,20.82,0.0,1011.21,90.0
2018-06-26 05:50,50.9117316666667,-96.982535,9.9,11.3,156,985.26,19.9,100,20.80,0.0,1011.10,90.0
2018-06-26 06:00,50.9117233333333,-96.9825033333333,9.8,11.2,157,985.17,19.9,100,20.79,0.0,1011.00,107.0
2018-06-26 06:10,50.9117283333333,-96.9825266666667,10.4,11.7,156,985.04,19.9,100,20.78,0.0,1010.88,107.0
2018-06-26 06:20,50.911735,-96.9825283333333,11.2,12.8,153,984.96,19.9,100,20.77,0.0,1010.81,107.0
2018-06-26 06:30,50.9117283333333,-96.982535,10.9,12.4,155,984.92,19.8,100,20.77,0.0,1010.77,107.0
2018-06-26 06:40,50.91173,-96.98253,11.1,12.7,157,984.81,19.8,100,20.76,0.0,1010.67,107.0
2018-06-26 06:50,50.91173,-96.9825283333333,11.0,13.1,159,984.80,19.8,100,20.75,0.0,1010.66,107.0
2018-06-26 07:00,50.91174,-96.9824933333333,10.0,12.5,160,984.75,19.8,100,20.75,0.0,1010.61,63.0
2018-06-26 07:10,50.91173,-96.9825183333333,8.8,11.9,163,984.69,20.0,100,20.74,0.0,1010.55,63.0
2018-06-26 07:20,50.91173,-96.9825233333333,9.3,12.4,165,984.64,20.1,100,20.73,0.0,1010.49,63.0
2018-06-26 07:30,50.9117183333333,-96.9825316666667,9.9,12.9,167,984.65,20.2,100,20.72,0.0,1010.50,63.0
2018-06-26 07:40,50.911715,-96.9825283333333,10.5,13.7,169,984.60,20.2,100,20.71,0.0,1010.45,63.0
2018-06-26 07:50,50.9117183333333,-96.9825333333333,10.2,12.2,170,984.53,20.3,100,20.71,0.0,1010.37,63.0
2018-06-26 08:00,50.9117216666667,-96.9825316666667,11.3,13.6,173,984.43,20.3,100,20.71,0.0,1010.27,360.0
2018-06-26 08:10,50.9117233333333,-96.9825333333333,11.9,14.2,173,984.38,20.4,100,20.70,0.0,1010.22,360.0
2018-06-26 08:20,50.911725,-96.9825316666667,11.7,14.0,172,984.27,20.3,100,20.70,0.0,1010.11,360.0
2018-06-26 08:30,50.9117083333333,-96.9825333333333,11.4,13.8,173,984.18,20.2,100,20.70,0.0,1010.02,360.0
2018-06-26 08:40,50.9117183333333,-96.9825316666667,10.4,12.3,174,984.15,20.1,100,20.70,0.0,1010.00,360.0
2018-06-26 08:50,50.911695,-96.9825066666667,11.6,14.5,175,984.16,20.3,99,20.70,0.0,1010.00,360.0
2018-06-26 09:00,50.911715,-96.9825133333333,11.3,14.0,175,984.18,20.4,99,20.69,0.0,1010.01,192.9
2018-06-26 09:10,50.91172,-96.98252,11.0,13.1,175,984.21,20.4,99,20.68,0.0,1010.03,192.9
2018-06-26 09:20,50.9117166666667,-96.9825233333333,11.2,13.0,176,984.13,20.3,99,20.68,0.0,1009.95,192.9
2018-06-26 09:30,50.9117183333333,-96.982565,10.9,13.8,173,984.11,20.2,99,20.67,0.0,1009.93,192.9
2018-06-26 09:40,50.911715,-96.982525,9.3,11.2,173,984.17,20.1,99,20.66,0.0,1009.99,192.9
2018-06-26 09:50,50.9117166666667,-96.9825283333333,7.3,9.9,168,984.19,20.0,100,20.66,0.0,1010.02,192.9
2018-06-26 10:00,50.9117066666667,-96.982525,7.0,10.2,167,984.17,19.8,100,20.65,0.0,1010.00,200.1
2018-06-26 10:10,50.9117166666667,-96.98252,9.1,10.9,170,984.19,19.7,100,20.63,0.0,1010.03,200.1
2018-06-26 10:20,50.9117116666667,-96.9825333333333,9.3,11.0,171,984.22,19.7,100,20.62,0.0,1010.07,200.1
2018-06-26 10:30,50.9117133333333,-96.9825416666667,8.8,10.2,174,984.22,19.6,100,20.60,0.0,1010.08,200.1
2018-06-26 10:40,50.9117183333333,-96.9825083333333,8.7,11.3,178,984.25,19.7,100,20.59,0.0,1010.10,200.1
2018-06-26 10:50,50.9117283333333,-96.98258,9.7,12.0,179,984.32,19.7,100,20.58,0.0,1010.16,200.1
2018-06-26 11:00,50.9117183333333,-96.9825266666667,9.7,11.8,178,984.45,19.7,100,20.58,0.0,1010.30,142.5
2018-06-26 11:10,50.9117116666667,-96.982485,9.0,10.9,176,984.56,19.7,100,20.56,0.0,1010.41,142.5
2018-06-26 11:20,50.9117216666667,-96.982525,9.3,11.3,175,984.65,19.7,99,20.55,0.0,1010.51,142.5
2018-06-26 11:30,50.91172,-96.9825266666667,9.7,12.0,172,984.73,19.8,99,20.55,0.0,1010.59,142.5
2018-06-26 11:40,50.9117183333333,-96.9825266666667,10.0,11.7,176,984.70,19.9,99,20.54,0.0,1010.56,142.5
2018-06-26 11:50,50.9117183333333,-96.9825266666667,9.0,10.9,173,984.67,19.9,99,20.54,0.0,1010.54,142.5
2018-06-26 12:00,50.9117,-96.9825216666667,8.1,11.4,168,984.65,20.0,99,20.54,0.0,1010.52,220.9
2018-06-26 12:10,50.9117266666667,-96.9825333333333,9.0,13.6,165,984.64,20.0,100,20.55,0.0,1010.51,220.9
2018-06-26 12:20,50.9117416666667,-96.982535,9.9,13.8,166,984.55,20.0,99,20.55,0.0,1010.42,220.9
2018-06-26 12:30,50.911725,-96.9825316666667,10.7,15.5,166,984.48,20.0,100,20.55,0.0,1010.34,220.9
2018-06-26 12:40,50.9117233333333,-96.98253,10.7,14.7,165,984.46,20.1,99,20.55,0.0,1010.32,220.9
2018-06-26 12:50,50.91172,-96.9825266666667,10.9,14.3,162,984.43,20.2,99,20.56,0.0,1010.29,220.9
2018-06-26 13:00,50.91172,-96.982525,11.4,14.9,161,984.32,20.2,99,20.56,0.0,1010.17,17.9
2018-06-26 13:10,50.9116783333333,-96.982525,11.7,14.8,161,984.29,20.2,99,20.56,0.0,1010.14,17.9
2018-06-26 13:20,50.9117283333333,-96.98254,11.9,15.9,161,984.22,20.2,100,20.56,0.0,1010.07,17.9
2018-06-26 13:30,50.9117166666667,-96.9825516666667,12.6,15.2,159,984.11,20.2,100,20.57,0.0,1009.95,17.9
2018-06-26 13:40,50.911715,-96.9825366666667,12.1,14.6,154,984.01,20.0,100,20.57,0.0,1009.85,17.9
2018-06-26 13:50,50.911715,-96.9825316666667,11.5,12.9,155,983.97,19.8,100,20.58,0.0,1009.82,17.9
2018-06-26 14:00,50.9117166666667,-96.98254,11.5,13.6,153,983.92,20.0,100,20.59,0.0,1009.76,270.0
2018-06-26 14:10,50.9117166666667,-96.982535,13.4,15.9,150,983.74,19.9,100,20.60,0.0,1009.57,270.0
2018-06-26 14:20,50.9117166666667,-96.9825316666667,14.9,17.1,150,983.62,19.9,100,20.61,0.0,1009.46,270.0
2018-06-26 14:30,50.9117183333333,-96.9825333333333,15.5,17.6,148,983.49,19.9,100,20.62,0.0,1009.32,270.0
2018-06-26 14:40,50.9117183333333,-96.9825333333333,15.7,18.7,148,983.46,20.0,100,20.63,0.0,1009.27,270.0
2018-06-26 14:50,50.91172,-96.9825333333333,15.9,18.3,151,983.44,20.0,100,20.63,0.0,1009.26,270.0
2018-06-26 15:00,50.9117183333333,-96.9825333333333,15.9,18.2,150,983.34,20.2,100,20.64,0.0,1009.14,312.1
2018-06-26 15:10,50.91175,-96.9825216666667,14.9,17.1,150,983.34,20.4,100,20.65,0.0,1009.13,312.1
2018-06-26 15:20,50.911725,-96.9825216666667,15.8,18.1,149,983.21,20.5,100,20.66,0.0,1009.00,312.1
2018-06-26 15:30,50.9117266666667,-96.9825316666667,15.6,18.5,147,983.03,20.6,99,20.67,0.0,1008.82,312.1
2018-06-26 15:40,50.9117233333333,-96.9825316666667,16.7,20.4,149,982.97,20.6,100,20.68,0.0,1008.76,312.1
2018-06-26 15:50,50.9117216666667,-96.9825316666667,17.1,19.8,149,982.88,20.6,100,20.70,0.0,1008.66,312.1
2018-06-26 16:00,50.911725,-96.9825283333333,16.4,20.0,148,982.82,20.7,99,20.71,0.0,1008.61,360.0
2018-06-26 16:10,50.9117233333333,-96.98251,15.0,17.2,146,982.86,20.8,99,20.73,0.0,1008.64,360.0
2018-06-26 16:20,50.911725,-96.9825216666667,15.4,18.4,147,982.86,20.9,98,20.75,0.0,1008.64,360.0
2018-06-26 16:30,50.911725,-96.982525,15.3,18.1,147,982.76,20.9,98,20.76,0.0,1008.53,360.0
2018-06-26 16:40,50.9117333333333,-96.98253,15.7,18.5,146,982.67,21.0,97,20.78,0.0,1008.43,360.0
2018-06-26 16:50,50.9117116666667,-96.982535,14.8,17.1,147,982.69,21.1,97,20.80,0.0,1008.44,360.0
2018-06-26 17:00,50.911735,-96.982545,15.0,17.8,147,982.69,21.2,97,20.82,0.0,1008.42,347.1
2018-06-26 17:10,50.91171,-96.9825,14.5,17.0,146,982.70,21.2,96,20.85,0.0,1008.42,347.1
2018-06-26 17:20,50.9117266666667,-96.9825283333333,14.5,16.4,146,982.62,21.2,96,20.87,0.0,1008.34,347.1
2018-06-26 17:30,50.911725,-96.9825483333333,14.4,16.6,146,982.64,21.4,95,20.89,0.0,1008.35,347.1
2018-06-26 17:40,50.9117233333333,-96.9825333333333,13.8,16.6,147,982.65,21.6,93,20.92,0.0,1008.36,347.1
2018-06-26 17:50,50.911725,-96.9825316666667,14.3,16.3,147,982.66,21.7,93,20.94,0.0,1008.36,347.1
2018-06-26 18:00,50.9117266666667,-96.98253,14.0,16.0,147,982.62,21.8,91,20.97,0.0,1008.31,360.0
2018-06-26 18:10,50.91173,-96.98254,14.5,16.5,145,982.54,21.9,90,21.00,0.0,1008.22,360.0
2018-06-26 18:20,50.9117316666667,-96.9825416666667,15.1,17.0,142,982.40,21.8,90,21.02,0.0,1008.07,360.0
2018-06-26 18:30,50.91173,-96.982535,15.5,17.4,141,982.22,21.8,89,21.05,0.0,1007.89,360.0
2018-06-26 18:40,50.9117333333333,-96.98253,16.0,17.7,138,982.02,22.0,87,21.08,0.0,1007.67,360.0
2018-06-26 18:50,50.9117333333333,-96.9825183333333,14.4,16.6,142,982.09,22.1,86,21.12,0.0,1007.74,360.0
2018-06-26 19:00,50.9117333333333,-96.982525,13.8,16.0,144,982.12,22.3,85,21.15,0.0,1007.75,37.5
2018-06-26 19:10,50.9117316666667,-96.9825316666667,13.6,15.5,142,982.06,22.1,87,21.18,0.0,1007.70,37.5
2018-06-26 19:20,50.91173,-96.9825266666667,13.6,15.2,141,981.84,22.2,85,21.22,0.0,1007.47,37.5
2018-06-26 19:30,50.911725,-96.9825383333333,14.6,16.8,142,981.68,22.4,82,21.25,0.0,1007.29,37.5
2018-06-26 19:40,50.911735,-96.982535,13.6,15.7,141,981.63,22.6,80,21.28,0.0,1007.22,37.5
2018-06-26 19:50,50.9117366666667,-96.9825316666667,13.7,15.6,144,981.55,22.6,81,21.32,0.0,1007.13,37.5
2018-06-26 20:00,50.9117366666667,-96.9825316666667,13.9,15.5,146,981.42,22.7,81,21.36,0.0,1006.99,90.0
2018-06-26 20:10,50.9117383333333,-96.9825333333333,14.2,17.4,144,981.19,22.7,79,21.39,0.0,1006.76,90.0
2018-06-26 20:20,50.911715,-96.9825716666667,16.1,18.0,144,980.94,22.8,77,21.41,0.0,1006.50,90.0
2018-06-26 20:30,50.9117366666667,-96.9825266666667,14.3,16.7,146,980.87,22.8,79,21.42,0.0,1006.42,90.0
2018-06-26 20:40,50.91174,-96.9825333333333,15.5,17.3,148,980.81,22.9,77,21.44,0.0,1006.35,90.0
2018-06-26 20:50,50.9117383333333,-96.9825333333333,15.5,17.7,146,980.60,22.9,77,21.46,0.0,1006.12,90.0
2018-06-26 21:00,50.9117366666667,-96.9825283333333,15.2,17.4,147,980.55,22.9,77,21.48,0.0,1006.08,37.5
2018-06-26 21:10,50.9117366666667,-96.9825283333333,15.9,18.4,148,980.55,22.9,77,21.50,0.0,1006.07,37.5
2018-06-26 21:20,50.9117233333333,-96.9825066666667,14.9,16.8,146,980.57,22.9,77,21.52,0.0,1006.09,37.5
2018-06-26 21:30,50.9117233333333,-96.98251,15.5,17.4,147,980.54,23.0,77,21.54,0.0,1006.04,37.5
2018-06-26 21:40,50.9117216666667,-96.9825216666667,15.8,17.9,149,980.58,22.9,77,21.56,0.0,1006.09,37.5
2018-06-26 21:50,50.9117216666667,-96.9825266666667,16.2,18.7,148,980.45,22.8,77,21.58,0.0,1005.96,37.5
2018-06-26 22:00,50.9117216666667,-96.9825266666667,16.7,18.8,150,980.33,22.8,76,21.57,0.0,1005.83,360.0
2018-06-26 22:10,50.911755,-96.9825583333333,16.3,17.9,151,980.34,23.0,75,21.57,0.0,1005.83,360.0
2018-06-26 22:20,50.9117266666667,-96.9825583333333,16.5,18.7,152,980.37,23.0,75,21.56,0.0,1005.86,360.0
2018-06-26 22:30,50.91173,-96.9825516666667,16.3,18.4,154,980.36,23.1,72,21.56,0.0,1005.84,360.0
2018-06-26 22:40,50.91173,-96.9825483333333,15.0,16.6,154,980.45,23.1,73,21.56,0.0,1005.93,360.0
2018-06-26 22:50,50.91174,-96.9825266666667,13.4,16.0,157,980.42,23.1,72,21.56,0.0,1005.90,360.0
2018-06-26 23:00,50.9117266666667,-96.9825333333333,13.8,17.1,157,980.30,23.2,72,21.56,0.0,1005.77,227.9
2018-06-26 23:10,50.9117316666667,-96.9825283333333,13.5,16.8,160,980.16,24.0,66,21.56,0.0,1005.59,227.9
2018-06-26 23:20,50.9117283333333,-96.9825316666667,13.5,17.6,162,979.99,24.7,62,21.58,0.0,1005.39,227.9
2018-06-26 23:30,50.91173,-96.98253,16.2,18.2,157,979.79,24.6,61,21.62,0.0,1005.19,227.9
2018-06-26 23:40,50.9117316666667,-96.9825316666667,15.8,18.2,154,979.72,24.7,61,21.64,0.0,1005.12,227.9
